Temp
71 71 70 71 62 55 48 57 64 64 65 69 72 71 68 68 66 58 72 74 74 72 74 77 80 80 79 79 79 78 78 78 78 78 78 78 78 78 78 78 78 79 80 80 80 80 79 79 79
70 72 70 64 55 49 49 58 60 63 70 70 74 72 70 65 73 69 70 75 74 73 73 74 79 79 79 79 78 78 78 78 78 78 78 78 78 78 78 78 78 79 79 79 80 80 79 79 79
72 73 66 58 50 49 50 59 62 66 70 71 71 76 72 67 73 71 74 75 73 72 73 75 79 79 79 79 78 78 78 78 78 78 78 78 78 78 78 78 78 79 80 80 80 80 79 79 79
72 69 65 57 49 54 58 61 64 65 70 72 72 67 75 78 75 75 76 75 72 71 73 77 78 78 79 78 78 78 78 78 78 78 78 78 78 78 78 78 78 79 79 79 79 79 78 78 78
67 63 54 51 51 56 60 67 66 65 68 70 73 67 68 75 77 76 75 74 70 70 73 75 78 78 79 79 79 78 78 78 78 78 78 78 78 78 78 78 78 79 79 79 79 78 78 78 78
64 61 53 48 52 60 60 66 67 66 67 70 70 68 68 74 74 74 74 71 72 73 72 74 78 78 78 78 78 78 78 77 77 77 77 77 77 77 76 77 78 78 78 78 78 78 78 77 77
63 58 51 51 52 55 62 66 64 66 66 69 73 66 67 72 74 74 72 71 72 72 71 72 74 77 78 78 78 77 77 76 76 75 75 75 75 75 75 75 77 77 77 77 77 77 77 77 77
63 59 50 50 52 55 63 66 67 68 68 77 78 65 62 70 73 72 71 70 70 71 71 71 71 72 72 74 78 77 76 75 74 74 73 72 71 72 73 73 74 75 75 75 75 76 76 76 76
63 55 51 55 55 58 61 63 67 74 72 74 76 74 73 73 73 69 68 68 68 70 69 69 70 70 71 73 75 73 74 73 71 69 71 66 65 66 68 72 72 73 73 73 73 74 74 74 73
60 55 58 65 63 60 60 65 68 70 70 69 69 72 73 72 71 67 66 65 66 66 67 67 69 69 71 74 68 67 69 66 64 64 62 63 61 65 67 68 70 70 71 71 71 72 71 70 69
56 57 64 68 67 64 63 64 70 67 63 70 66 66 70 71 69 67 66 66 65 66 66 66 67 68 68 68 67 66 64 63 62 62 60 59 60 59 61 61 62 62 66 64 66 66 67 66 67
57 64 65 67 68 65 61 67 66 67 68 75 71 70 70 69 68 66 66 65 65 65 65 66 66 66 65 66 65 64 64 62 60 59 59 58 58 57 58 59 59 59 60 60 62 63 63 64 65
56 62 65 70 65 61 68 65 65 65 69 73 71 70 69 68 67 67 67 66 65 64 64 64 66 64 63 63 62 62 60 59 59 58 59 58 57 56 57 57 58 58 59 59 59 60 61 61 63
64 63 63 61 58 62 63 62 68 66 70 70 69 68 67 66 66 65 65 63 63 64 63 65 66 65 66 62 60 59 58 57 57 57 58 58 56 56 56 56 56 57 58 58 59 59 59 59 60
63 56 58 58 59 61 66 60 61 66 69 67 67 66 66 65 65 65 63 62 62 62 62 62 61 61 60 59 58 57 58 57 56 57 57 57 56 55 55 55 55 56 57 58 58 59 59 59 60
56 56 50 54 61 62 64 57 63 66 66 64 66 66 64 64 63 62 62 61 61 60 60 60 64 59 57 57 56 56 55 55 55 56 56 57 57 55 55 55 55 56 57 57 57 57 58 58 57
53 47 48 53 62 62 58 54 64 66 66 63 63 63 63 61 61 61 62 60 60 59 58 57 58 57 56 55 55 55 54 54 54 55 55 55 57 57 55 55 56 57 57 57 56 57 57 56 57
46 48 48 51 60 60 56 55 60 64 64 62 60 61 61 60 58 60 61 61 60 58 57 56 56 55 55 55 55 54 54 53 54 54 54 55 55 56 55 56 56 57 59 58 56 55 59 57 56
54 51 51 56 62 59 58 61 59 62 62 59 59 59 59 58 61 59 60 61 59 58 57 56 54 54 55 54 53 52 51 52 52 53 54 54 55 55 55 56 57 58 57 57 55 53 57 57 57
54 51 52 58 62 60 55 57 58 61 62 60 58 58 59 60 57 58 58 58 58 57 56 55 54 53 53 53 52 52 51 51 51 51 53 53 54 55 57 55 55 55 55 54 52 51 55 56 57
52 51 53 56 58 57 55 51 53 59 61 61 62 63 61 58 57 56 57 58 57 56 55 54 53 52 52 51 51 50 50 50 50 49 50 52 54 55 55 55 54 54 53 51 51 51 50 52 55
49 60 61 58 54 47 56 44 55 54 57 57 60 60 59 59 58 57 56 55 57 57 56 53 52 51 51 51 50 49 48 47 47 48 49 51 53 54 55 54 53 51 52 50 51 52 50 53 49
58 62 58 57 50 48 49 46 47 56 55 57 59 60 58 57 57 55 56 57 57 55 53 52 51 50 50 49 49 48 46 47 48 48 50 50 51 53 55 53 52 51 51 51 51 51 50 50 50
65 58 54 47 46 40 49 49 45 53 57 60 61 61 58 56 56 57 58 57 55 54 52 51 50 49 49 49 49 48 47 47 48 48 49 49 50 51 53 53 52 52 52 51 51 51 50 50 49
58 49 40 40 39 40 47 47 52 56 59 63 63 61 59 56 55 55 55 55 54 52 51 51 50 49 49 49 49 48 48 48 48 48 48 49 50 50 52 52 52 52 53 53 53 51 51 51 51
52 51 42 36 36 42 48 44 53 56 62 62 64 61 59 55 56 56 56 55 55 53 52 52 49 49 49 49 49 48 48 49 49 49 49 49 49 50 51 54 52 52 53 53 53 52 52 51 50
52 48 53 44 40 39 43 49 55 56 57 57 58 58 54 55 56 57 56 56 55 54 52 52 50 49 49 49 48 48 48 49 50 50 49 49 50 53 53 52 51 52 52 51 51 52 52 52 51
59 59 47 43 37 35 41 43 48 51 53 54 54 54 55 56 56 57 57 56 56 55 53 51 51 50 49 49 49 49 49 50 50 49 50 50 51 52 52 52 51 51 51 51 50 51 52 52 51
54 50 48 46 43 38 36 41 53 58 57 55 55 56 55 55 56 57 57 57 57 55 52 51 50 50 49 49 48 49 49 51 51 51 51 52 52 52 53 53 52 51 50 50 51 51 52 52 52
55 51 48 42 41 40 39 43 58 59 59 59 59 58 57 57 57 58 57 56 55 53 52 51 51 51 51 50 49 49 50 50 50 50 51 52 52 53 53 53 52 52 51 49 50 51 52 51 51
MSLP
1010.05 1010.38 1010.55 1010.71 1011.81 1012.49 1013.43 1013.27 1012.47 1011.72 1011.47 1011.37 1011.16 1010.74 1011.44 1012.16 1012.51 1013.58 1013.46 1013.62 1013.78 1014.04 1014.08 1014.15 1014.21 1014.26 1014.33 1014.42 1014.42 1014.53 1014.74 1014.93 1014.96 1014.93 1015.08 1015.25 1015.30 1015.31 1015.34 1015.42 1015.37 1015.34 1015.25 1015.12 1015.07 1015.07 1015.03 1014.99 1014.89
1010.29 1010.76 1010.85 1011.45 1012.41 1013.37 1013.99 1013.13 1012.45 1011.84 1011.26 1011.64 1011.10 1011.03 1011.40 1012.10 1012.45 1013.09 1013.56 1013.68 1013.70 1014.11 1014.33 1014.45 1014.45 1014.63 1014.71 1014.69 1014.69 1014.75 1015.02 1015.20 1015.27 1015.34 1015.37 1015.45 1015.43 1015.38 1015.41 1015.38 1015.49 1015.46 1015.41 1015.31 1015.12 1015.01 1014.98 1014.93 1014.87
1010.36 1010.38 1011.22 1012.10 1013.08 1013.53 1013.57 1012.93 1012.16 1011.64 1011.78 1011.62 1011.34 1011.28 1011.65 1012.25 1012.52 1013.03 1013.19 1013.63 1013.95 1014.31 1014.57 1014.59 1014.70 1014.73 1014.84 1015.01 1015.14 1015.17 1015.18 1015.35 1015.48 1015.54 1015.58 1015.59 1015.64 1015.55 1015.61 1015.51 1015.53 1015.53 1015.35 1015.26 1015.17 1015.05 1014.99 1014.93 1014.80
1010.36 1010.81 1011.81 1012.26 1013.29 1013.12 1012.69 1012.29 1012.14 1011.97 1011.90 1011.66 1011.66 1011.97 1012.01 1012.17 1012.48 1012.88 1013.39 1013.81 1014.34 1014.70 1014.58 1014.62 1014.88 1015.02 1015.09 1015.25 1015.43 1015.49 1015.48 1015.69 1015.86 1015.77 1015.82 1015.80 1015.73 1015.63 1015.72 1015.69 1015.60 1015.57 1015.38 1015.28 1015.15 1014.97 1014.95 1014.87 1014.72
1010.45 1011.18 1012.40 1013.03 1013.31 1012.92 1012.50 1012.21 1012.12 1012.10 1011.89 1011.80 1011.87 1012.14 1012.44 1012.68 1012.83 1013.18 1013.73 1014.37 1014.67 1014.97 1014.88 1014.85 1014.93 1015.15 1015.34 1015.36 1015.64 1015.77 1015.86 1016.04 1016.10 1015.93 1015.91 1015.90 1015.78 1015.77 1015.82 1015.78 1015.65 1015.54 1015.42 1015.33 1015.11 1015.02 1014.90 1014.77 1014.61
1010.82 1011.60 1012.81 1013.40 1013.14 1012.85 1012.56 1012.29 1012.23 1012.12 1011.78 1011.82 1011.81 1012.14 1012.84 1012.99 1013.14 1013.90 1014.02 1014.66 1014.92 1015.17 1015.23 1015.17 1015.25 1015.41 1015.62 1015.64 1015.88 1015.95 1016.11 1016.28 1016.38 1016.36 1016.29 1016.24 1016.18 1016.05 1016.11 1015.95 1015.73 1015.60 1015.44 1015.28 1015.14 1015.02 1014.86 1014.60 1014.49
1010.54 1011.77 1012.71 1013.09 1013.04 1012.73 1012.30 1012.14 1012.11 1011.91 1011.54 1011.61 1011.54 1012.31 1013.23 1013.34 1013.52 1014.03 1014.58 1014.99 1015.41 1015.38 1015.48 1015.51 1015.63 1015.53 1015.92 1015.96 1016.10 1016.38 1016.53 1016.62 1016.70 1016.68 1016.67 1016.66 1016.59 1016.51 1016.39 1016.28 1016.05 1015.93 1015.81 1015.62 1015.41 1015.29 1015.00 1014.73 1014.47
1010.16 1011.44 1012.71 1012.90 1012.82 1012.12 1011.91 1011.86 1011.59 1011.52 1011.07 1010.99 1011.16 1012.03 1013.12 1013.56 1013.98 1014.37 1015.22 1015.34 1015.74 1015.72 1015.81 1015.98 1016.03 1015.98 1016.30 1016.31 1016.44 1016.64 1016.92 1017.03 1017.05 1017.14 1017.03 1017.07 1017.15 1017.01 1016.90 1016.74 1016.60 1016.38 1016.16 1015.93 1015.76 1015.53 1015.30 1015.03 1014.74
1009.77 1011.26 1012.42 1012.22 1012.29 1011.35 1011.47 1011.47 1011.35 1011.01 1010.80 1010.94 1011.33 1011.75 1012.44 1013.62 1014.20 1014.85 1015.57 1015.98 1016.04 1016.17 1016.28 1016.25 1016.32 1016.40 1016.48 1016.55 1016.75 1017.16 1017.38 1017.56 1017.67 1017.71 1017.71 1017.74 1017.83 1017.59 1017.43 1017.13 1016.94 1016.69 1016.51 1016.31 1016.08 1015.81 1015.54 1015.27 1015.03
1009.84 1010.94 1011.12 1010.44 1010.36 1010.49 1011.04 1010.86 1011.08 1011.21 1010.99 1011.27 1011.98 1012.42 1012.70 1013.76 1014.43 1015.17 1015.72 1016.06 1016.50 1016.70 1016.67 1016.55 1016.48 1016.61 1016.77 1016.88 1017.34 1017.52 1018.02 1018.18 1018.35 1018.41 1018.33 1018.31 1018.33 1018.01 1017.84 1017.60 1017.33 1017.15 1016.88 1016.63 1016.34 1016.05 1015.82 1015.57 1015.32
1009.76 1010.03 1009.80 1009.41 1009.36 1009.83 1010.60 1011.07 1011.05 1011.10 1011.39 1010.87 1011.72 1012.77 1013.09 1013.76 1014.61 1015.35 1015.98 1016.22 1016.58 1016.66 1016.72 1016.76 1016.69 1016.79 1017.03 1017.19 1017.46 1017.95 1018.41 1018.67 1018.77 1018.78 1018.78 1018.76 1018.70 1018.60 1018.33 1018.11 1017.87 1017.62 1017.24 1017.00 1016.66 1016.34 1016.07 1015.80 1015.45
1009.33 1009.25 1009.14 1008.94 1009.13 1009.80 1010.57 1010.75 1011.13 1011.04 1010.34 1010.40 1011.38 1012.41 1013.34 1014.00 1014.75 1015.44 1015.99 1016.32 1016.55 1017.02 1017.30 1017.21 1017.11 1017.22 1017.39 1017.46 1017.95 1018.39 1018.60 1018.94 1019.09 1019.13 1019.14 1018.95 1019.00 1018.89 1018.73 1018.49 1018.25 1017.96 1017.71 1017.35 1016.99 1016.64 1016.28 1015.87 1015.48
1009.09 1008.94 1009.05 1008.47 1009.01 1009.39 1009.98 1010.51 1010.93 1010.95 1010.57 1010.62 1011.71 1012.82 1013.57 1014.41 1015.00 1015.81 1016.31 1016.82 1016.99 1017.53 1017.91 1017.98 1017.84 1017.80 1018.04 1018.32 1018.69 1018.95 1019.35 1019.53 1019.64 1019.57 1019.32 1019.28 1019.32 1019.23 1019.01 1018.82 1018.53 1018.20 1017.83 1017.52 1017.12 1016.74 1016.35 1015.91 1015.45
1008.61 1008.66 1008.74 1008.99 1009.45 1009.76 1010.11 1010.79 1010.85 1010.87 1010.84 1011.28 1012.03 1013.03 1013.82 1014.54 1015.28 1016.21 1016.92 1017.50 1017.49 1017.75 1018.24 1018.46 1018.24 1018.12 1018.42 1018.87 1019.14 1019.50 1019.85 1020.02 1019.85 1019.72 1019.72 1019.59 1019.52 1019.45 1019.29 1019.07 1018.83 1018.44 1018.08 1017.67 1017.30 1016.90 1016.51 1016.09 1015.64
1008.43 1008.82 1009.10 1009.58 1009.80 1010.08 1010.32 1011.41 1010.76 1010.67 1011.15 1011.75 1012.56 1013.43 1014.49 1015.38 1016.03 1016.46 1017.02 1017.58 1017.70 1018.02 1018.39 1018.45 1018.41 1018.61 1018.79 1019.09 1019.32 1019.71 1019.94 1020.12 1020.23 1020.13 1020.04 1019.85 1019.70 1019.67 1019.66 1019.41 1019.09 1018.70 1018.22 1017.75 1017.28 1016.87 1016.56 1016.13 1015.67
1008.74 1008.96 1009.23 1009.80 1009.84 1010.18 1010.14 1010.40 1010.67 1011.09 1011.53 1012.28 1013.32 1014.56 1015.68 1016.29 1016.54 1016.76 1016.96 1017.36 1017.75 1017.93 1018.35 1018.70 1018.71 1018.74 1019.08 1019.42 1019.74 1020.02 1020.33 1020.29 1020.52 1020.60 1020.23 1020.04 1019.88 1019.85 1019.84 1019.56 1019.28 1018.83 1018.32 1017.92 1017.58 1017.32 1016.88 1016.43 1015.97
1009.68 1009.58 1009.47 1009.67 1009.72 1010.00 1010.74 1010.63 1010.58 1011.32 1011.98 1013.28 1014.43 1015.16 1016.08 1017.04 1017.70 1018.32 1018.42 1017.95 1017.95 1018.18 1018.73 1018.93 1018.89 1018.90 1019.19 1019.60 1019.94 1020.24 1020.58 1020.72 1020.86 1020.72 1020.60 1020.32 1020.13 1019.97 1019.94 1019.75 1019.39 1018.87 1018.45 1018.09 1017.91 1017.62 1017.34 1016.95 1016.35
1010.10 1009.82 1009.60 1009.37 1009.53 1010.11 1010.60 1010.76 1010.79 1011.22 1012.38 1013.35 1014.39 1015.21 1015.96 1016.40 1017.53 1017.29 1018.96 1019.13 1019.38 1019.48 1019.02 1019.12 1019.04 1019.29 1019.50 1019.69 1020.12 1020.63 1020.96 1021.19 1021.06 1021.09 1020.99 1020.76 1020.49 1020.28 1020.29 1020.04 1019.63 1019.10 1018.60 1018.36 1018.08 1017.94 1017.50 1017.34 1017.11
1009.69 1009.65 1009.64 1009.42 1009.16 1009.81 1010.10 1010.30 1010.61 1011.70 1012.36 1013.14 1013.77 1014.66 1014.99 1014.78 1015.27 1015.82 1017.43 1018.95 1019.92 1020.03 1019.47 1019.71 1019.48 1019.61 1019.73 1020.16 1020.60 1020.95 1021.48 1021.42 1021.45 1021.40 1021.33 1021.13 1020.80 1020.70 1020.67 1020.32 1019.85 1019.43 1019.18 1019.08 1018.69 1018.29 1017.93 1017.38 1017.23
1009.52 1009.52 1009.37 1009.02 1008.98 1009.76 1010.09 1010.37 1011.09 1011.48 1011.46 1011.63 1012.34 1013.16 1014.14 1015.52 1016.33 1016.32 1017.61 1018.84 1019.58 1020.11 1020.06 1019.97 1019.99 1019.95 1020.04 1020.28 1020.74 1020.94 1021.50 1021.65 1021.74 1021.83 1021.59 1021.34 1021.14 1021.02 1020.74 1020.52 1020.24 1019.96 1019.67 1019.32 1019.18 1018.95 1018.66 1018.39 1017.90
1009.06 1009.24 1009.08 1009.19 1009.23 1009.67 1010.37 1010.97 1011.16 1011.42 1011.69 1012.37 1012.59 1012.74 1013.88 1014.51 1015.84 1016.50 1017.53 1018.54 1019.44 1020.18 1020.33 1020.04 1020.24 1020.18 1020.31 1020.49 1020.87 1021.22 1021.55 1021.80 1022.14 1022.11 1021.91 1021.84 1021.59 1021.29 1021.06 1020.84 1020.71 1020.49 1020.33 1020.19 1019.94 1019.79 1019.45 1019.35 1018.86
1008.49 1008.08 1008.42 1008.94 1009.87 1010.20 1010.05 1011.10 1011.39 1011.55 1011.92 1012.28 1012.52 1012.96 1013.68 1014.77 1016.08 1016.61 1017.26 1018.39 1019.01 1019.55 1019.99 1020.23 1020.31 1020.35 1020.55 1020.85 1021.06 1021.45 1021.89 1022.47 1022.80 1022.51 1022.39 1022.28 1021.92 1021.62 1021.39 1021.32 1021.15 1021.00 1020.93 1020.77 1020.52 1020.41 1020.28 1019.76 1019.91
1007.52 1007.47 1008.18 1008.57 1009.52 1009.94 1010.17 1010.89 1011.08 1011.47 1011.80 1011.20 1011.13 1012.14 1013.27 1014.38 1015.45 1016.25 1016.87 1017.83 1018.33 1019.22 1019.85 1020.23 1020.57 1020.57 1020.86 1021.00 1021.30 1021.67 1022.18 1022.55 1022.54 1022.53 1022.66 1022.56 1022.32 1021.95 1021.68 1021.66 1021.56 1021.38 1021.32 1021.28 1021.07 1020.87 1020.79 1020.71 1020.69
1006.80 1007.55 1008.51 1009.52 1010.10 1010.68 1009.67 1010.19 1010.89 1010.81 1009.50 1009.12 1010.38 1011.38 1012.48 1013.79 1015.19 1015.92 1016.92 1017.88 1018.39 1019.29 1019.90 1020.43 1020.70 1021.01 1021.25 1021.42 1021.58 1021.81 1022.21 1022.40 1022.64 1022.88 1022.89 1022.84 1022.59 1022.28 1022.08 1022.02 1021.91 1021.66 1021.54 1021.65 1021.57 1021.38 1021.16 1021.23 1021.28
1007.14 1008.65 1009.93 1010.64 1010.98 1010.67 1009.79 1010.11 1008.84 1008.47 1007.91 1007.63 1008.34 1010.13 1011.61 1013.01 1014.48 1015.48 1016.44 1017.31 1018.09 1018.98 1019.63 1020.25 1020.60 1021.07 1021.47 1021.62 1021.78 1021.92 1022.07 1022.38 1022.64 1022.92 1023.06 1022.93 1022.84 1022.71 1022.44 1022.22 1022.10 1021.90 1021.77 1021.61 1021.62 1021.54 1021.43 1021.40 1021.42
1007.22 1008.42 1010.26 1011.02 1011.50 1010.95 1010.02 1009.47 1008.02 1007.82 1007.33 1007.83 1008.39 1009.83 1011.54 1012.86 1013.79 1014.72 1015.68 1016.66 1017.54 1018.47 1019.30 1019.86 1020.45 1020.93 1021.39 1021.73 1021.83 1021.91 1022.13 1022.31 1022.56 1022.73 1022.88 1022.98 1023.02 1022.93 1022.60 1022.36 1022.39 1022.16 1021.87 1021.70 1021.65 1021.69 1021.81 1021.94 1021.99
1007.07 1008.17 1008.69 1010.17 1011.23 1011.12 1009.98 1009.00 1007.97 1007.86 1007.82 1008.04 1008.64 1009.63 1010.93 1012.00 1012.89 1013.86 1015.08 1016.03 1016.87 1017.77 1018.70 1019.37 1020.11 1020.78 1021.28 1021.57 1021.71 1022.04 1022.16 1022.33 1022.50 1022.64 1022.77 1022.99 1022.97 1022.67 1022.62 1022.57 1022.59 1022.44 1022.22 1022.15 1022.01 1021.97 1021.97 1021.96 1022.17
1006.54 1007.59 1009.08 1010.24 1011.20 1011.29 1010.18 1009.42 1008.28 1008.12 1007.88 1008.23 1008.95 1009.47 1010.55 1011.54 1012.55 1013.35 1014.20 1015.25 1016.33 1017.27 1018.32 1019.18 1019.86 1020.50 1020.97 1021.29 1021.64 1021.95 1022.06 1022.24 1022.45 1022.56 1022.77 1022.94 1022.92 1022.80 1022.69 1022.63 1022.63 1022.64 1022.56 1022.48 1022.40 1022.30 1022.25 1022.15 1022.31
1007.31 1007.86 1009.09 1010.12 1010.74 1010.80 1010.41 1008.89 1006.63 1006.34 1006.49 1007.16 1007.77 1008.85 1009.69 1010.64 1011.45 1012.51 1013.69 1014.76 1015.58 1016.73 1017.87 1018.95 1019.79 1020.36 1020.84 1021.14 1021.57 1021.83 1022.00 1022.20 1022.41 1022.53 1022.64 1022.78 1022.77 1022.81 1022.73 1022.69 1022.76 1022.75 1022.77 1022.75 1022.62 1022.63 1022.56 1022.45 1022.45
1007.92 1009.27 1010.29 1011.54 1011.21 1010.69 1009.90 1007.54 1005.30 1005.02 1005.64 1006.26 1006.97 1007.97 1009.11 1010.05 1011.04 1012.17 1013.27 1014.44 1015.40 1016.25 1017.46 1018.45 1019.34 1019.98 1020.38 1020.83 1021.28 1021.66 1021.97 1022.20 1022.35 1022.46 1022.50 1022.61 1022.72 1022.74 1022.79 1022.81 1022.86 1022.92 1022.90 1022.87 1022.82 1022.83 1022.78 1022.70 1022.53
Wind_Speed
5 5 2 3 5 6 2 2 3 4 1 1 2 6 2 4 2 2 2 5 8 6 5 5 8 9 12 11 12 12 11 10 10 10 9 8 7 7 6 6 5 5 4 4 4 4 4 4 4
5 3 3 2 5 4 3 3 6 6 1 5 3 4 4 3 3 6 6 6 7 6 5 5 9 9 10 10 11 11 10 9 9 8 7 6 5 5 4 4 5 5 6 6 6 6 6 6 6
5 1 4 5 3 4 5 5 4 5 3 1 4 5 3 3 3 5 6 9 7 6 5 5 10 10 10 10 9 9 9 8 7 6 5 5 4 5 5 5 6 7 7 7 7 7 7 7 7
3 3 5 5 2 4 5 6 4 2 1 4 1 5 4 1 6 5 11 10 7 5 5 8 9 9 9 9 9 8 9 9 8 8 6 5 6 6 6 7 7 7 9 9 8 8 8 8 8
4 3 4 3 1 3 4 4 5 3 0 3 1 4 4 3 9 11 10 7 7 4 4 5 9 9 8 9 9 9 10 11 11 9 6 8 8 8 9 10 9 10 10 11 10 9 8 8 9
4 4 4 2 4 3 2 5 4 2 0 3 3 5 3 10 12 7 9 7 5 7 4 4 8 8 8 9 9 10 10 12 12 13 14 15 15 16 16 15 11 11 12 11 10 8 9 9 8
7 5 4 4 3 3 6 8 4 5 5 4 4 5 2 4 9 9 8 7 5 5 4 4 4 7 8 9 10 11 13 13 13 14 15 15 15 16 17 16 16 16 15 14 13 12 13 14 11
6 6 4 3 6 6 7 7 3 6 4 6 5 5 6 4 11 12 7 7 5 4 4 4 4 5 5 5 13 14 13 13 14 15 16 16 16 16 16 15 15 15 15 15 14 14 13 13 13
3 6 3 6 7 5 6 5 1 1 5 2 5 3 9 14 13 11 7 4 4 4 3 3 4 4 5 5 9 12 15 15 14 13 15 11 6 7 11 13 17 16 17 15 15 13 13 12 11
5 5 11 7 7 6 7 6 9 5 5 3 5 8 18 16 14 12 9 7 4 4 2 2 4 5 4 7 7 7 8 6 6 7 7 5 6 7 9 12 16 15 16 15 14 13 13 10 5
4 6 5 6 7 5 10 6 5 7 5 9 12 14 16 17 12 11 6 5 6 3 4 4 5 6 5 6 4 4 3 3 4 6 5 5 5 4 5 4 5 5 11 5 7 7 5 7 5
4 6 7 4 6 7 11 9 6 8 6 9 15 17 14 16 14 11 9 8 7 6 5 6 5 7 6 5 4 4 4 3 4 4 5 5 4 5 5 4 4 4 4 6 5 4 5 6 6
3 3 6 7 7 3 11 9 6 7 1 15 16 16 15 13 11 7 7 6 7 7 6 6 5 6 5 6 4 4 4 4 4 3 5 4 4 4 3 4 4 4 5 4 5 5 5 6 7
8 4 4 3 3 4 8 3 7 6 9 16 19 15 13 13 12 9 8 6 7 8 6 5 7 6 7 6 4 4 4 4 3 4 4 5 4 4 4 4 4 5 5 5 4 4 5 6 6
2 2 3 4 5 4 10 2 8 7 11 17 15 13 11 9 10 9 7 7 7 6 6 6 6 5 6 6 5 4 4 4 4 4 5 5 5 5 5 4 5 5 5 6 5 5 4 5 7
1 5 2 1 3 2 5 12 6 11 15 15 12 10 9 8 6 6 8 8 7 8 8 6 6 7 7 6 5 5 4 4 4 3 4 6 5 5 4 4 5 5 4 4 5 4 5 6 6
7 1 2 3 4 5 3 3 6 10 12 10 9 10 10 8 9 7 3 5 7 8 7 6 6 7 8 7 6 6 6 5 3 4 4 6 5 6 4 4 4 5 4 5 5 2 3 6 6
1 3 2 1 7 6 6 5 5 14 12 13 13 13 13 14 11 12 2 3 3 1 5 6 5 7 7 7 6 4 4 3 4 4 4 6 5 6 5 4 4 4 4 6 6 3 4 3 5
2 2 2 4 7 6 13 10 11 11 12 13 14 15 17 19 16 16 12 7 2 1 4 3 7 5 5 3 3 3 3 2 3 3 5 5 5 6 5 4 5 5 6 5 7 3 5 9 7
3 2 5 3 5 8 4 13 5 15 18 21 20 19 16 14 13 14 11 7 6 4 3 5 5 6 4 3 3 3 3 2 2 2 4 5 6 5 4 4 4 5 5 9 10 6 3 5 8
4 5 5 6 1 2 6 4 3 5 4 7 12 12 12 18 17 15 14 11 8 6 4 6 5 6 5 6 5 4 3 3 3 3 3 4 5 5 5 6 5 5 5 5 7 7 7 4 7
4 7 6 4 5 5 5 5 6 4 8 8 12 12 12 12 12 14 14 12 11 8 6 5 6 6 6 5 4 4 4 3 1 1 2 3 5 5 5 5 5 5 4 6 5 6 5 5 6
10 3 2 3 5 3 3 4 4 8 13 18 20 16 12 10 15 15 14 13 10 8 7 6 6 6 6 6 6 5 5 2 1 3 3 4 4 5 5 5 4 5 4 3 5 6 6 5 4
3 3 5 4 4 2 7 7 5 12 27 25 13 17 16 14 14 12 11 9 9 7 6 6 7 5 5 5 6 7 7 5 4 3 3 3 2 3 5 4 3 4 4 4 4 3 6 4 5
5 6 5 5 4 7 2 4 10 17 11 23 23 17 17 17 17 16 15 12 11 11 9 7 7 6 5 6 6 7 7 6 6 3 2 3 2 3 4 3 4 3 3 1 3 4 4 3 4
3 8 6 4 3 7 2 6 8 4 9 5 8 14 14 17 17 17 16 14 13 12 11 9 8 7 6 6 6 5 6 3 3 2 2 2 1 1 3 2 4 4 5 4 3 3 3 4 4
2 2 5 6 3 1 3 6 5 4 4 4 9 16 16 18 18 20 17 14 14 13 13 11 9 6 6 6 5 5 5 5 3 2 2 1 1 1 2 4 4 4 5 5 4 3 4 4 4
7 6 2 3 3 4 5 4 6 6 9 6 10 15 16 16 17 16 16 15 13 12 10 9 9 9 7 7 5 5 5 4 4 3 3 1 1 1 4 4 4 4 4 4 4 3 3 5 2
4 2 3 4 5 6 4 8 10 13 16 17 14 13 17 18 19 17 15 14 14 12 11 10 9 9 7 6 6 6 5 4 2 2 2 1 1 0 2 3 3 3 4 4 3 3 3 4 2
2 5 6 4 8 3 4 9 5 12 11 13 15 13 14 14 15 15 15 14 13 14 13 13 10 9 8 7 6 6 5 4 4 4 2 1 2 2 2 2 3 3 3 3 3 2 2 2 3
Wind_Direction
123 120 73 37 52 69 73 228 267 240 193 239 186 106 104 92 1 224 139 124 116 115 126 121 119 115 109 102 99 93 89 89 87 86 82 73 67 63 58 46 39 30 30 31 27 18 12 2 1
133 133 42 77 83 83 257 253 233 247 48 161 191 119 81 68 83 119 116 141 124 126 120 119 123 118 110 104 99 96 91 83 77 71 68 59 54 45 29 22 3 356 351 346 344 342 336 330 326
155 121 87 93 108 155 189 227 224 259 7 13 79 13 76 109 54 130 123 129 116 120 129 145 129 119 110 107 101 98 94 84 74 63 50 37 20 17 2 4 359 350 350 341 334 332 325 317 312
143 18 32 83 141 236 204 197 215 273 60 36 31 90 66 136 140 135 130 125 113 117 127 133 125 118 116 113 104 92 84 68 48 36 26 19 7 2 353 355 356 352 353 344 336 334 328 318 308
38 64 67 73 260 250 273 161 167 203 247 140 182 136 84 54 102 120 114 106 113 129 133 120 128 129 125 106 98 87 74 63 44 29 35 24 6 358 356 356 354 355 356 350 352 348 338 328 327
48 99 64 168 253 228 265 141 163 237 164 138 83 105 93 131 122 123 112 109 122 135 123 127 130 120 115 105 97 89 82 62 51 49 48 44 43 45 39 30 19 9 1 4 357 354 357 336 324
132 94 188 149 236 293 189 159 211 178 189 169 154 111 82 131 118 108 102 103 104 103 117 100 117 123 111 100 91 82 73 62 58 52 45 41 36 38 35 31 36 32 24 22 24 22 15 19 20
114 92 112 201 195 250 157 168 177 172 198 117 147 175 173 149 119 103 97 99 108 105 101 95 87 84 91 93 96 84 74 62 55 51 46 40 34 35 30 33 27 26 20 17 14 10 9 14 13
134 72 165 207 169 221 150 133 264 270 149 115 156 132 129 126 115 112 110 102 103 106 100 108 115 116 110 100 90 75 66 57 53 47 48 38 24 26 27 29 27 22 19 14 11 10 12 13 7
98 126 202 201 201 187 171 137 159 159 165 163 78 90 128 136 139 140 154 144 141 135 103 115 130 108 86 93 82 73 68 54 46 43 39 37 27 32 35 29 27 19 17 9 12 13 9 4 351
152 169 201 236 211 149 146 142 170 143 212 200 165 150 148 147 148 149 147 145 142 113 70 62 111 105 103 100 83 72 72 64 54 48 42 41 39 20 21 15 11 2 6 3 3 360 1 348 342
133 214 182 222 208 141 159 140 177 205 213 168 155 154 153 158 159 159 153 143 121 92 72 65 73 94 80 85 81 87 81 63 57 45 39 40 36 30 22 21 4 6 357 353 354 350 337 335 327
181 195 209 237 177 189 130 171 177 212 195 132 138 152 157 157 149 125 114 106 109 100 76 64 68 75 78 73 76 69 65 60 63 53 44 43 45 38 13 10 5 360 351 355 343 340 333 325 328
197 197 233 311 147 171 127 151 147 204 144 142 149 160 157 158 144 122 132 133 113 104 90 84 72 72 81 86 89 95 75 61 56 50 42 44 42 25 17 4 357 352 346 339 337 332 333 327 331
209 202 112 37 176 151 110 31 223 154 153 153 157 157 146 136 135 144 131 122 124 111 114 93 85 77 82 90 89 81 63 66 52 48 40 40 38 26 12 1 351 341 340 342 343 345 344 341 340
54 55 51 55 117 192 133 227 204 159 155 164 155 127 110 111 117 119 131 124 121 112 107 105 116 101 94 87 93 93 78 76 58 40 32 29 31 26 10 1 352 340 352 352 354 357 339 348 348
3 130 59 41 138 163 190 224 169 165 165 137 117 116 114 84 69 26 53 132 140 141 145 127 102 99 99 92 85 77 69 62 51 39 23 19 18 20 20 4 346 345 356 8 358 348 348 354 348
201 52 1 232 202 189 193 262 192 175 136 138 126 139 147 135 139 165 205 -0 358 106 115 114 112 107 102 98 95 80 77 55 45 33 26 17 12 16 9 352 354 352 9 11 4 5 351 4 339
147 193 228 256 187 133 214 218 201 162 143 146 156 162 175 169 190 128 141 171 189 261 128 128 107 115 108 94 101 80 74 36 41 23 19 13 16 11 5 354 360 357 20 5 6 5 354 13 359
178 231 258 297 223 178 185 245 152 182 187 175 176 185 178 163 162 152 148 146 173 183 153 108 100 109 105 104 115 117 125 77 64 359 18 21 13 2 9 13 18 15 21 30 23 22 359 14 21
207 194 216 195 175 1 109 331 153 192 171 202 210 200 174 173 173 166 155 161 150 177 173 126 117 105 96 105 108 79 65 47 28 11 8 359 353 3 20 29 34 38 36 38 39 18 35 12 27
277 206 230 196 140 227 180 268 227 200 210 205 218 206 180 183 177 158 155 161 167 174 149 134 123 110 104 123 103 105 116 111 213 41 342 345 1 10 35 36 40 51 25 38 40 32 31 39 30
228 191 237 272 173 113 199 102 257 160 220 228 218 204 181 166 172 164 161 170 161 154 154 136 124 107 111 107 113 115 104 121 94 51 34 22 -0 7 37 48 38 51 38 28 47 41 42 44 59
271 37 48 58 98 80 232 156 227 184 216 226 219 206 178 162 160 164 164 159 145 140 136 139 126 113 117 122 119 122 126 108 91 63 45 24 349 3 25 32 49 54 50 30 21 55 61 61 61
80 55 347 348 5 218 37 100 235 217 237 218 210 193 177 163 159 167 169 167 157 161 156 153 144 140 150 135 132 131 119 119 109 100 65 20 17 5 347 18 27 25 16 29 32 50 58 82 99
164 142 155 242 235 253 80 210 251 275 236 207 171 168 167 166 167 175 176 173 168 165 165 157 157 148 160 162 145 133 137 123 118 117 96 67 53 335 313 67 39 28 33 32 45 47 61 70 80
327 210 191 128 1 54 235 291 321 332 316 137 157 165 173 173 173 175 174 176 169 167 175 166 159 155 169 171 146 156 146 136 134 124 99 69 323 1 85 91 60 27 27 30 47 54 60 78 75
164 169 295 0 203 254 291 284 233 246 235 192 181 183 178 174 175 177 175 174 172 169 163 154 161 170 172 161 163 167 162 152 133 127 137 108 349 45 113 86 66 39 34 31 32 49 39 78 59
343 287 75 139 144 181 221 258 219 208 199 203 200 190 179 181 179 177 175 174 170 160 158 163 166 164 169 166 166 160 166 165 150 180 219 181 174 53 119 102 78 58 42 28 34 45 37 61 14
138 64 66 23 290 212 167 270 244 220 198 186 197 185 187 181 173 172 172 171 166 162 162 168 169 174 176 166 161 172 166 175 168 206 249 217 229 242 211 148 95 62 54 41 44 28 2 357 331